Regional Weather Roundup
Issued by NWS

Home | Current Version | Previous Version | Graphics & Text | Print | Product List | Glossary On
Versions: 1 2 3 4 5 6 7 8 9 10 11 12 13 14 15 16 17 18 19 20 21 22 23 24 25 26 27
000
ASUS45 KBOU 261207
RWRCO

WEATHER ROUNDUP FOR COLORADO
NATIONAL WEATHER SERVICE DENVER/BOULDER CO
600 AM MDT TUE JUL 26 2016

NOTE: "FAIR" INDICATES FEW OR NO CLOUDS BELOW 12000 FEET WITH NO
SIGNIFICANT WEATHER AND/OR OBSTRUCTIONS TO VISIBILITY.

COZ001>005-013-030-031-261300-
...NORTHWEST COLORADO...

CITY           SKY/WX    TMP DP  RH WIND       PRES   REMARKS
CRAIG          FAIR      50  43  77 CALM      30.26R
HAYDEN         FAIR      59  36  41 E9        30.28S
MEEKER         FAIR      53  43  68 NE5       30.27R
MOUNT WERNER   NOT AVBL
STEAMBOAT SPGS FAIR      56  38  49 CALM      30.30S
WALDEN         FAIR      50  34  53 SE8       30.41R
$$

COZ006>008-011-261300-
...WEST CENTRAL VALLEYS...

CITY           SKY/WX    TMP DP  RH WIND       PRES   REMARKS
GRAND JUNCTION FAIR      73  44  35 E8        30.14R
MONTROSE       FAIR      67  45  45 S7        30.25R
EAGLE          FAIR      57  39  51 CALM      30.34R
RIFLE          FAIR      68  42  38 CALM      30.21R
DELTA          FAIR      70  45  40 NE3       30.20R
NUCLA          FAIR     N/A N/A N/A SE7       30.29R
$$

COZ017>023-064>068-261300-
...SOUTHWEST COLORADO...

CITY           SKY/WX    TMP DP  RH WIND       PRES   REMARKS
DURANGO        FAIR      64  48  56 NE6       30.33S
CORTEZ         LGT RAIN  67  54  63 E9        30.26F
PAGOSA SPRINGS FAIR      57  46  65 CALM      30.42S
TELLURIDE      FAIR      57  40  53 SE6       30.51S
WOLF CREEK PAS FAIR      45  41  87 SW16      30.74S
$$

COZ009-010-012-014-032>034-037-058>063-261300-
...CENTRAL COLORADO...

CITY           SKY/WX    TMP DP  RH WIND       PRES   REMARKS
ASPEN          FAIR      57  39  51 S7        30.39S
BUENA VISTA    FAIR      52  41  65 NW6       30.44S
COPPER MTN     FAIR      54  32  43 CALM      30.72S
BERTHOUD PASS  FAIR      46  32  57 N21       30.74S
COTTONWOOD PAS FAIR      57  34  41 W5        30.56F
GUNNISON       FAIR      50  43  76 CALM      30.46R
KREMMLING      FAIR      50  41  71 CALM      30.39S
LEADVILLE      FAIR      43  36  76 NE7       30.56F
MONARCH PASS   FAIR      46  39  76 SW12      30.82S
SALIDA         FAIR      57  47  68 W3        30.47F
SUNLIGHT       FAIR      57  34  41 CALM      30.64S
WILKERSON PASS FAIR      52  36  54 W7        30.67S
$$

COZ069>075-261300-
...SAN LUIS VALLEY/SANGRE DE CRISTO MOUNTAINS...

CITY           SKY/WX    TMP DP  RH WIND       PRES   REMARKS
ALAMOSA        FAIR      55  49  80 E7        30.39R
LA VETA PASS   FAIR      54  43  66 S13G22    30.55S
SAGUACHE       FAIR      55  43  62 N9        30.42F
$$

COZ035-036-038>040-261300-
...NORTHERN COLORADO FRONT RANGE...

CITY           SKY/WX    TMP DP  RH WIND       PRES   REMARKS
DENVER INTL AP FAIR      64  50  60 SW8       30.14S
DMNS CITY PARK   N/A     63  52  65 E1        30.15R
AURORA         PTCLDY    65  46  49 W6        30.18R
FRONT RANGE AP NOT AVBL
ERIE MUNI ARPT FAIR      58  52  81 SW5       30.13S
BOULDER MUN AP FAIR      63  45  51 S3        30.14S
CENTENNIAL     FAIR      67  43  41 VRB3      30.18S
BROOMFIELD     FAIR      63  50  63 CALM      30.17S
LONGMONT       FAIR      57  49  74 CALM      30.14F
$$

COZ041-046-047-076>085-087-088-261300-
...PIKES PEAK/PALMER DIVIDE AND SOUTHERN FOOTHILLS...

CITY           SKY/WX    TMP DP  RH WIND       PRES   REMARKS
COLO. SPRINGS  MOCLDY    65  45  48 N6        30.22S
A. F. ACADEMY  FAIR      73  41  31 E7        30.25R
SCHRIEVER AFB  NOT AVBL
ELLICOTT       FAIR     N/A N/A N/A SE3       30.23R
FALCON         NOT AVBL
FORT CARSON    FAIR      62  48  61 VRB3      30.20R
LIMON          NOT AVBL
MONUMENT HILL  FAIR      59  43  55 SW7       30.30S
TRINIDAD       NOT AVBL
$$

COZ042>045-048>051-090-091-261300-
...NORTHEAST COLORADO...

CITY           SKY/WX    TMP DP  RH WIND       PRES   REMARKS
GREELEY ARPT   FAIR      57  54  88 NW6       30.11S
AKRON          FAIR      60  57  89 S14       30.13S
BURLINGTON     CLOUDY    67  64  90 S15       30.15S
WRAY           NOT AVBL
STERLING       FAIR      63  59  88 S7        30.08S
HOLYOKE          N/A     66  63  88 W8        30.12S
FORT MORGAN    FAIR      57  52  81 SE5       30.11S
$$

COZ086-089-092>099-261300-
...SOUTHEAST COLORADO...

CITY           SKY/WX    TMP DP  RH WIND       PRES   REMARKS
PUEBLO         FAIR      61  57  87 E7        30.14R
LA JUNTA       FAIR      63  56  78 E6        30.13S
LAMAR          FAIR      68  59  73 SE12      30.11F
SPRINGFIELD      N/A     59  58  96 NW5       30.18R
$$




USA.gov is the U.S. government's official web portal to all federal, state and local government web resources and services.